www.pogodaiklimat.ru
ПОГОДА в Манде

Архив погоды в Манде (Соломоновы Острова)

Время
(UTC), дата
12 20.02
15 20.02
18 20.02
21 20.02
00 21.02
03 21.02
09 21.02
12 21.02
15 21.02
18 21.02
21 21.02
00 22.02
03 22.02
06 22.02
09 22.02
12 22.02
15 22.02
18 22.02
21 22.02
00 23.02
03 23.02
06 23.02
09 23.02
12 23.02
15 23.02
18 23.02
21 23.02
00 24.02
03 24.02
06 24.02
09 24.02
12 24.02
15 24.02
18 24.02
21 24.02
00 25.02
03 25.02
06 25.02
09 25.02
12 25.02
15 25.02
18 25.02
21 25.02
00 26.02
03 26.02
06 26.02
09 26.02
12 26.02
18 26.02
21 26.02
00 27.02
03 27.02
06 27.02
Ветер
(напр.,м/с)
Видим. Явления Облачность Т
(С)
Тd
(С)
f
(%)
Тe
(С)
Тes
(С)
Комфортность P
(гПа)
Po
(гПа)
Тmin
(С)
Tmax
(С)
R
(мм)
R24
(мм)
S
(см)
З 4 4000 м ливневой дождь {гроза} 10/8 480 м [Cb cap Ac As] +26.4 +24.9 91 +38 +38 очень душно 1010.2 1009.5 14
ЮЗ 3 10 км в посл. час ливневой дождь 10/6 480 м [Cu Sc Ac As] +25.5 +25.1 98 +37 +37 очень душно 1008.9 1008.2
штиль 0 4000 м осадки на расстоянии {дождь} 10/6 480 м [Cu Sc As op] +25.0 +24.6 98 +35 +35 очень душно 1008.3 1007.6 29
штиль 0 10 км мгла {ливн. дождь} 10/5 480 м [Cu Sc Ac As] +25.4 +24.9 97 +36 +36 очень душно 1009.8 1009.1
ЮЗ 4 20 км мгла 5/1 540 м [Cu med, cong Ac trans Cs] +29.7 +24.8 75 +42 +49 очень душно 1009.6 1008.9 +25.0 65 65.3
З 3 20 км мгла 6/3 600 м [Cu med, cong Ac trans Ci sp] +30.6 +25.4 74 +45 +52 очень душно 1007.6 1006.9
З 3 10 км осадки на расстоянии 9/4 540 м [Cu Sc Ac trans] +29.0 +25.6 82 +43 +43 очень душно 1009.1 1008.4
З 3 10 км слаб. ливневой дождь 10/8 500 м [Cb cap Ac As] +27.1 +25.9 93 +40 +40 очень душно 1010.0 1009.3 4
З 2 10 км слаб. ливневой дождь 10/6 480 м [Cb cap Ac As Cs] +26.6 +25.4 93 +39 +39 очень душно 1008.9 1008.2
З 3 10 км слаб. дождь {ливн. дождь} 10/6 480 м [Cb cap Ac As Cs] +25.5 +24.8 96 +36 +36 очень душно 1009.0 1008.3 11
штиль 0 10 км морось {ливн. дождь, дождь} 10/6 500 м [Cb cap Ac As Cs] +26.4 +25.1 93 +38 +39 очень душно 1011.0 1010.3
З 2 20 км мгла {морось} 8/3 540 м [Cu Sc Ac As Cs] +29.2 +25.6 81 +43 +50 очень душно 1011.2 1010.5 +25.0 24 24.0
З 3 20 км мгла 9/3 570 м [Cu med, cong Ac trans Cs] +31.4 +26.4 75 +48 +50 очень душно 1008.8 1008.1
З 4 20 км мгла 8/1 540 м [Cu med, cong Ac trans Cs] +30.2 +26.2 79 +46 +46 очень душно 1008.4 1007.7
З 4 20 км мгла {ливн. дождь} 8/3 480 м [Cu Sc Ac trans Cs] +27.6 +26.0 91 +41 +41 очень душно 1010.4 1009.7
штиль 0 20 км мгла 5/1 480 м [Cu med, cong Ac trans Cs] +26.8 +26.2 97 +41 +41 очень душно 1011.2 1010.5 1
штиль 0 10 км в посл. час ливневой дождь 10/6 500 м [Cb cap Ac As] +26.2 +25.1 94 +38 +38 очень душно 1009.5 1008.8
штиль 0 20 км мгла 10/5 500 м [Cb cap Ac As] +25.8 +24.9 95 +37 +37 очень душно 1009.1 1008.4 0.8
З 2 10 км мгла {ливн. дождь} 10/4 500 м [Cb cap Ac As] +26.3 +26.1 99 +39 +40 очень душно 1010.8 1010.1
Ю 2 10 км слаб. ливневой дождь 9/5 500 м [Cb cap Ac As] +26.3 +25.6 96 +39 +40 очень душно 1010.5 1009.8 +26.2 9 8.6
штиль 0 10 км слаб. ливневой дождь {морось} 10/6 500 м [Cb cap Ac As] +28.0 +26.9 94 +44 +47 очень душно 1009.1 1008.4
З 2 20 км осадки на расстоянии {ливн. дождь} 10/5 540 м [Cb cap Ac As] +30.5 +25.6 75 +45 +45 очень душно 1007.8 1007.1 1
штиль 0 20 км мгла 10/3 500 м [Cu Sc Ac As Cs] +28.5 +25.7 85 +42 +42 очень душно 1010.1 1009.4
С 2 10 км мгла 10/3 500 м [Cu Sc Ac As] +27.8 +24.7 83 +39 +39 очень душно 1011.2 1010.5
С 3 20 км слаб. ливневой дождь 10/3 480 м [Cu Sc Ac As] +25.8 +25.3 97 +37 +37 очень душно 1009.1 1008.4
штиль 0 20 км мгла 9/1 480 м [Cu med, cong Ac trans Cs] +25.5 +24.9 96 +36 +36 очень душно 1008.4 1007.7 0.0
штиль 0 20 км 9/1 480 м [Cu med, cong Ac trans Cs] +26.0 +25.3 96 +38 +38 очень душно 1009.6 1008.9
штиль 0 20 км 8/1 540 м [Cu med, cong Ac trans Cs] +30.0 +25.0 75 +43 +48 очень душно 1009.8 1009.1 +25.1 2 2.2
штиль 0 20 км гроза без осадков 9/5 540 м [Cb cap Ac trans] +30.4 +26.0 77 +45 +48 очень душно 1008.6 1007.9
штиль 0 10 км мгла {ливн. дождь} 9/4 540 м [Cu Sc Ac As] +29.0 +26.3 85 +44 +45 очень душно 1007.5 1006.8 0.8
штиль 0 10 км мгла 9/4 540 м [Cu Sc Ac As] +27.4 +26.1 93 +41 +41 очень душно 1009.3 1008.6
штиль 0 10 км мгла 9/4 500 м [Cu Sc Ac As] +26.6 +25.1 91 +38 +38 очень душно 1011.3 1010.6
штиль 0 10 км мгла 9/3 480 м [Cu Sc Ac As Cs] +26.2 +25.0 93 +37 +37 очень душно 1009.3 1008.6
штиль 0 20 км 3/1 480 м [Cu Sc Ac trans Ci fib] +25.4 +24.9 97 +36 +36 очень душно 1008.5 1007.8
штиль 0 20 км мгла 9/1 500 м [Cu med, cong Ac trans Cs] +26.0 +25.0 94 +37 +38 очень душно 1010.5 1009.8
штиль 0 20 км мгла 8/1 540 м [Cu med, cong Ac trans Ci sp] +30.5 +24.8 72 +44 +51 очень душно 1010.5 1009.8 +25.0 0.8 0.8
ЮЗ 2 20 км 4/1 540 м [Cu med, cong Ac trans Ci sp] +31.5 +24.4 66 +44 +56 очень душно 1007.8 1007.1
ЮЗ 2 20 км 4/1 540 м [Cu med, cong Ac trans Ci sp] +31.7 +25.5 70 +46 +49 очень душно 1006.8 1006.1
ЮЗ 4 20 км 6/3 480 м [Cu med, cong Ac trans Cs] +29.7 +25.4 78 +44 +44 очень душно 1008.8 1008.1
Ю 3 20 км мгла 8/4 480 м [Cu Sc Ac trans Cs] +29.1 +26.1 84 +44 +44 очень душно 1009.9 1009.2
З 3 10 км слаб. ливневой дождь 10/9 480 м [Cb cap] +25.8 +24.6 93 +36 +36 очень душно 1008.5 1007.8
З 3 10 км мгла {ливн. дождь} 9/6 480 м [Cb cap Ac trans] +25.5 +24.3 93 +35 +35 очень душно 1007.6 1006.9 0.4
штиль 0 10 км мгла 8/1 500 м [Cu med, cong Ac trans Cs] +27.0 +26.0 94 +40 +43 очень душно 1009.0 1008.3
З 3 10 км мгла 6/3 540 м [Cb cap Ac trans Ci ing] +31.0 +26.4 77 +47 +55 очень душно 1009.7 1009.0 +25.9 5 4.8
З 3 20 км мгла 9/3 570 м [Cb cap Ac trans Cs] +31.8 +26.7 74 +49 +56 очень душно 1007.4 1006.7
З 3 20 км мгла 9/5 540 м [Cb cap Ac trans Cs] +31.5 +25.9 72 +47 +48 очень душно 1007.0 1006.3
штиль 0 20 км мгла 10/6 540 м [Cb cap Ac As Cs] +28.0 +26.0 89 +42 +42 очень душно 1009.0 1008.3
штиль 0 10 км слаб. ливневой дождь {гроза} 10/8 500 м [Cb cap Ac As] +27.2 +26.0 93 +41 +41 очень душно 1010.1 1009.4 3
штиль 0 20 км мгла {ливн. дождь} 6/1 480 м [Cu Sc Ac trans Cs] +25.8 +24.8 94 +37 +37 очень душно 1007.1 1006.4 31
штиль 0 20 км мгла 6/1 480 м [Cu med, cong Ac trans Cs] +27.6 +26.0 91 +41 +44 очень душно 1009.0 1008.3
ЮЗ 2 20 км мгла 5/3 540 м [Cu Sc Ci ing] +30.7 +25.9 76 +46 +59 очень душно 1009.1 1008.4 +25.7 34 33.8
З 1 20 км в посл. час ливневой дождь 10/6 540 м [Cb cap Ac trans Ci ing] +27.1 +25.6 92 +40 +45 очень душно 1007.8 1007.1
штиль 0 10 км мгла 9/8 [Cb cap Ac trans Ci ing] +30.5 +25.7 76 +45 +47 очень душно 1007.1 1006.4 23
Местоположение метеостанции Манда (Соломоновы Острова): широта -8.33 долгота 157.26 высота над уровнем моря 6 м.
В архиве по умолчанию представлена погода в Манде за последнюю неделю. Архивные данные за месяц целиком и за предыдущие месяцы, начиная с января 2011 года, Вы можете получить, выбрав интересующий диапазон дат из раскрывающегося списка и нажав кнопку "Найти!".
*Определитесь, кто Вы:
Внимание! Время в таблицах - всемирное. Для получения местного времени необходимо прибавить поправку, которая равна 11 ч.
Некоторые строки с данными для отдельных станций могут быть выделены курсивом. Это означает, что фактические данные отсутствуют по различным причинам, а приведенные значения являются расчетными модельными данными для данного пункта наблюдений.
Смотрите также архив погоды в соседних городах и на ближайших метеорологических станциях:
Партнеры нашего сайта:      
Пояснения к столбцам:
  • Ветер - указаны скорость ветра в м/с - средняя за 10 мин, порывы в срок и между сроками (в фигурных скобках) и направление, откуда дует ветер: С - северный,
  • СВ - северо-восточный, В - восточный, ЮВ - юго-восточный, Ю - южный, ЮЗ - юго-западный, З - западный, СЗ - северо-западный.
  • Видимость - горизонтальная дальность видимости в метрах или километрах. При видимости от 1 до 10 км при отсутствии осадков обычно наблюдается дымка, при ухудшении видимости до 1 км и менее - туман. В сухую погоду видимость может ухудшаться дымом, пылью или мглою.
  • Явления - указаны атмосферные явления, наблюдавшиеся в срок или в последний час перед сроком; фигурными скобками обозначены явления, наблюдавшиеся между сроками (за 1-3 часа до срока); квадратными скобками обозначены град или гололедные отложения с указанием их диаметра в мм.
  • Облачность - указаны через наклонную черту общая и нижняя облачность в баллах и высота нижней границы облаков в метрах; квадратными скобками обозначены формы облаков: Ci - перистые, Cs - перисто-слоистые, Cc - перисто-кучевые, Ac - высококучевые, As - высокослоистые, Sc - слоисто-кучевые, Ns - слоисто-дождевые, Cu - кучевые, Cb - кучево-дождевые. Подробнее классификацию облаков см. в Атласе облаков (PDF).
  • T - Температура воздуха - температура, измеренная на высоте 2 м над землей.
  • Td - Температура точки росы - температура, при понижении до которой содержащийся в воздухе водяной пар достигнет насыщения.
  • f - Относительная влажность воздуха - влажноcть воздуха, измеренная на высоте 2 м над землей.
  • Te - Эффективная температура - температура, которую ощущает одетый по сезону человек в тени. Характеристика душности погоды. При расчете учитывается влияние влажности воздуха и скорости ветра на теплоощущения человека.
  • Tes - Эффективная температура на солнце - температура, которую ощущает человек, с поправкой на солнечный нагрев. Характеристика знойности погоды. Зависит от высоты солнца над горизонтом, облачности и скорости ветра. Ночью, в пасмурную погоду, а также при ветре 12 м/с и более поправка равна нулю.
  • P - Атмосферное давление - приведенное к уровню моря атмосферное давление.
  • Po - Атмосферное давление - измеренное на уровне метеостанции атмосферное давление.
  • Tmin - Минимальная температура - минимум температуры воздуха на высоте 2 м над землей.
  • Tmax - Максимальная температура - максимум температуры воздуха на высоте 2 м над землей.
  • R - Количество осадков - Количество выпавших осадков за период времени, мм. При наведении курсора мыши на число - период времени, за который выпало указанное количество осадков.
  • R24 - Количество осадков - Количество выпавших осадков за 24 часа, мм.
  • S - Снежный покров - Высота снежного покрова, см. При наведении курсора мыши на число - состояние снежного покрова и степень покрытия местности в баллах.